CW0506 Weather Reports


Display with metric or nautical units.
time (UTC)temp
F
wind
direction
speed
MPH
gust
MPH
rain 1hr
in
rain 24hr
in
rain mn
in
humidity
%
barometer
mb
20180622222832 73 229 0.0 0.0 0.00 0.00 0.00 60 1015.5
20180622215832 74 200 0.0 0.0 0.00 0.00 0.00 63 1015.5
20180622212832 74 117 0.0 0.0 0.00 0.00 0.00 67 1015.7
20180622205832 75 171 0.0 0.0 0.00 0.00 0.00 68 1015.7
20180622202832 75 171 0.0 0.0 0.00 0.00 0.00 66 1015.6
20180622195832 76 215 0.0 0.0 0.00 0.00 0.00 57 1015.7
20180622192832 76 24 0.0 0.0 0.00 0.00 0.00 54 1015.9
20180622185832 77 191 0.0 0.0 0.00 0.00 0.00 49 1015.8
20180622182832 76 211 0.0 0.0 0.00 0.00 0.00 55 1015.9
20180622175832 77 173 0.0 0.0 0.00 0.00 0.00 52 1016.0
20180622172832 76 101 0.0 0.0 0.00 0.00 0.00 54 1016.1
20180622165834 75 170 0.0 0.0 0.00 0.00 0.00 59 1016.3
20180622162832 74 283 0.0 0.0 0.00 0.00 0.00 55 1016.6
20180622155832 73 247 0.0 0.0 0.00 0.00 0.00 55 1016.8
20180622152833 71 355 0.0 0.0 0.00 0.00 0.00 58 1016.8
20180622145832 69 234 0.0 0.0 0.00 0.00 0.00 61 1016.7
20180622142832 68 360 0.0 0.0 0.00 0.00 0.00 59 1016.8
20180622135834 67 294 0.0 0.0 0.00 0.00 0.00 61 1016.8
20180622132832 65 161 0.0 0.0 0.00 0.00 0.00 64 1016.7
20180622125853 64 304 0.0 0.0 0.00 0.00 0.00 59 1016.9
20180622122822 63 340 0.0 0.0 0.00 0.00 0.00 62 1016.7
20180622115822 62 355 0.0 1.0 0.00 0.00 0.00 59 1016.2
20180622112824 59 255 0.0 0.0 0.00 0.00 0.00 67 1016.1
20180622105822 56 179 0.0 0.0 0.00 0.00 0.00 78 1015.8
20180622102852 54 178 0.0 0.0 0.00 0.00 0.00 80 1015.7
20180622095852 54 178 0.0 0.0 0.00 0.00 0.00 79 1015.2
20180622092852 55 178 0.0 0.0 0.00 0.00 0.00 76 1014.7
20180622085822 55 178 0.0 0.0 0.00 0.00 0.00 74 1014.2
20180622082822 56 190 0.0 0.0 0.00 0.00 0.00 73 1014.1
20180622075823 59 190 0.0 0.0 0.00 0.00 0.00 69 1013.6
20180622072823 58 236 0.0 0.0 0.00 0.00 0.00 71 1013.3
20180622065823 59 174 0.0 0.0 0.00 0.00 0.00 72 1013.2
20180622062822 59 234 0.0 0.0 0.00 0.00 0.00 67 1012.8
20180622055852 59 203 0.0 0.0 0.00 0.00 0.00 75 1012.5
20180622052822 61 203 0.0 0.0 0.00 0.00 0.00 71 1012.4
20180622045822 63 355 0.0 0.0 0.00 0.00 0.00 63 1012.2
20180622042822 65 355 0.0 0.0 0.00 0.00 0.00 59 1012.1
20180622035852 67 355 0.0 0.0 0.00 0.00 0.00 57 1011.9
20180622032823 68 336 0.0 0.0 0.00 0.00 0.00 51 1011.5
20180622025824 67 298 0.0 0.0 0.00 0.00 0.00 58 1011.2
20180622022853 67 295 0.0 0.0 0.00 0.00 0.00 58 1011.1
20180622015854 68 319 0.0 0.0 0.00 0.00 0.00 61 1010.7
20180622012823 70 350 0.0 0.0 0.00 0.00 0.00 67 1010.1
20180622005853 72 292 0.0 0.0 0.00 0.00 0.00 68 1009.4
20180622002854 74 351 0.0 0.0 0.00 0.00 0.00 70 1009.0
20180621235854 76 347 0.0 0.0 0.00 0.00 0.00 65 1008.5
20180621232853 79 347 0.0 0.0 0.00 0.00 0.00 60 1008.2
20180621225824 79 335 0.0 0.0 0.00 0.00 0.00 57 1007.9